This is the latest recevied weather packets stored in our database for station/object N5DGC. If no packets are shown the sender has not sent any weather packets the latest 10 day(s).
| Time | Temp. | Humidity | Pressure | Rain* | Wind** | Luminosity | Snow |
|---|---|---|---|---|---|---|---|
| 1777900773 | 12.78° C | 66% | 1234.5 hPa | 0 mm | - | 49 W/m² | - |
| 1777900470 | 12.22° C | 67% | 1234.6 hPa | 0 mm | - | 55 W/m² | - |
| 1777900167 | 12.22° C | 67% | 1234.6 hPa | 0 mm | - | 39 W/m² | - |
| 1777899863 | 12.22° C | 68% | 1234.8 hPa | 0 mm | - | 44 W/m² | - |
| 1777899560 | 11.67° C | 69% | 1234.7 hPa | 0 mm | - | 29 W/m² | - |
| 1777899258 | 11.67° C | 69% | 1234.5 hPa | 0 mm | - | 27 W/m² | - |
| 1777898955 | 11.11° C | 69% | 1234.4 hPa | 0 mm | - | 23 W/m² | - |
| 1777898652 | 11.11° C | 69% | 1234.4 hPa | 0 mm | - | 18 W/m² | - |
| 1777898349 | 10.56° C | 69% | 1234.2 hPa | 0 mm | - | 10 W/m² | - |
| 1777898047 | 11.11° C | 69% | 1233.9 hPa | 0 mm | - | 11 W/m² | - |
| 1777897743 | 11.11° C | 68% | 1233.9 hPa | 0 mm | - | 6 W/m² | - |
| 1777897439 | 11.11° C | 68% | 1233.9 hPa | 0 mm | - | 3 W/m² | - |
| 1777897135 | 10.56° C | 68% | 1233.9 hPa | 0 mm | - | 2 W/m² | - |
| 1777896832 | 10.56° C | 69% | 1233.8 hPa | 0 mm | - | 1 W/m² | - |
| 1777896529 | 10.56° C | 68% | 1233.6 hPa | 0 mm | - | 1 W/m² | - |
| 1777896226 | 11.11° C | 68% | 1233.5 hPa | 0 mm | - | 0 W/m² | - |
| 1777895924 | 11.11° C | 68% | 1233.6 hPa | 0 mm | - | 0 W/m² | - |
| 1777895621 | 11.11° C | 67% | 1233.5 hPa | 0 mm | - | 0 W/m² | - |
| 1777895319 | 11.11° C | 67% | 1233.9 hPa | 0 mm | - | 0 W/m² | - |
| 1777895017 | 11.11° C | 67% | 1233.5 hPa | 0 mm | - | 0 W/m² | - |
| 1777894714 | 11.11° C | 68% | 1233.8 hPa | 0 mm | - | 0 W/m² | - |
| 1777894410 | 11.11° C | 69% | 1233.6 hPa | 0 mm | - | 0 W/m² | - |
| 1777894108 | 11.11° C | 68% | 1233.8 hPa | 0 mm | - | 0 W/m² | - |
| 1777893805 | 11.11° C | 68% | 1233.3 hPa | 0 mm | - | 0 W/m² | - |
| 1777893501 | 11.11° C | 69% | 1233.3 hPa | 0 mm | - | 0 W/m² | - |
* Rain latest hour (hover to see other rain measurements)
** Current wind speed in m/s (hover to see current wind gust speed)